View from above orbital plane
|
View from above satellite
|
Ground track
|
The orbit data is extracted from the following two-line orbital elements,
1 40911U 15049N 21023.49599339 .00000762 00000-0 42330-4 0 9994
2 40911 97.4828 28.1640 0013101 334.7967 144.3082 15.16640596295518
Epoch (UTC): | 23 January 2021 11:54:13 |
Eccentricity: | 0.0013101 |
inclination: | 97.4828° |
perigee height: | 507 km |
apogee height: | 525 km |
right ascension of ascending node: | 28.1640° |
argument of perigee: | 334.7967° |
revolutions per day: | 15.16640596 |
mean anomaly at epoch: | 144.3082° |
orbit number at epoch: | 29551 |
The dashed part of the orbit path shows where the satellite is in the earth's shadow,
|
|